Location: Les Jeannots
(43.2262°N, 5.5774°E)
Time: 19:07:52
(UTC+00:00)

Cosmos 44 - Pass Details

Date: 05 July 2020
Orbit: 586 x 776 km, 65.1° (Epoch: 11 August)

Event Time Altitude Azimuth Distance (km) Brightness Sun altitude
Exits shadow 23:43:41 36° 274° (W) 955 4.0 -24.1°
Maximum altitude 23:44:42 42° 310° (NW) 855 4.0 -24.1°
Drops below altitude 10° 23:48:55 10° 22° (NNE) 1,971 6.6 -24.1°
Sets 23:51:20 0° 29° (NNE) 2,904 7.5 -24.1°
